Wind_Speed
19 19 20 20 19 20 19 17 15 14 14 11 11 11 12 14 14 15 17 8 15 6 13 12 9 15 11 9 15 4 2 3 3 2 3 2 5 13 5 22 11 12 22 42 43
20 21 21 21 20 20 20 17 15 13 14 13 12 12 12 14 16 17 8 10 13 14 12 13 15 19 8 7 6 8 4 4 1 4 4 3 6 13 2 15 3 8 33 42 44
22 21 21 21 20 20 20 17 16 14 13 14 13 12 11 11 12 3 8 6 17 14 12 13 12 12 10 10 8 5 6 6 5 9 12 8 7 3 5 5 11 28 40 43 42
22 23 23 22 20 19 19 16 16 15 14 11 12 9 9 7 1 3 7 1 9 13 14 16 16 5 5 6 12 3 12 14 16 15 16 9 3 8 6 3 7 35 46 46 39
23 24 24 23 21 19 17 16 17 15 12 10 8 8 5 4 5 1 6 3 6 15 16 18 16 8 3 7 14 9 15 14 21 16 12 18 9 4 7 4 11 38 39 41 38
25 25 24 23 20 18 17 14 15 13 9 7 9 4 4 3 2 1 6 4 2 15 18 22 17 18 6 12 7 8 12 15 24 16 17 13 9 8 7 5 26 39 36 38 37
26 25 23 21 19 17 15 13 12 11 8 7 5 6 7 8 3 4 8 5 4 9 18 24 19 7 3 6 18 17 6 4 16 21 8 21 6 2 6 13 32 31 31 31 34
25 24 22 20 17 16 13 12 10 10 6 4 1 3 6 1 4 10 8 8 7 4 12 17 15 13 15 14 10 4 3 3 5 21 14 6 4 8 10 12 29 30 30 31 33
24 23 21 18 16 14 11 11 10 6 3 0 2 4 5 2 4 6 7 9 10 5 3 9 5 9 7 3 5 7 2 4 7 24 10 9 5 14 30 25 34 33 31 29 33
22 21 20 17 14 12 8 11 4 5 4 5 6 6 3 5 7 5 7 4 17 9 9 6 6 2 3 5 3 4 3 5 4 3 7 11 6 21 28 19 26 35 34 27 35
22 21 19 16 11 7 10 5 6 2 8 8 9 10 8 3 1 5 7 5 11 11 4 5 4 3 7 5 6 4 4 8 14 10 6 16 14 23 26 17 20 26 35 38 29
20 21 19 13 5 1 7 8 8 9 9 13 17 19 13 10 4 7 7 3 3 4 3 3 2 8 7 6 7 6 7 12 11 5 2 9 13 15 19 19 25 30 29 34 40
20 20 18 6 3 3 7 7 7 10 3 11 11 11 9 5 4 10 12 3 3 5 5 6 9 9 6 6 6 6 6 11 10 6 8 12 8 12 12 16 21 29 39 37 40
20 19 16 1 2 7 12 12 12 5 4 6 4 5 8 2 1 9 4 0 1 9 7 6 16 10 9 8 6 7 7 10 6 3 1 4 3 8 14 13 15 30 35 36 43
17 16 11 6 2 8 12 8 7 5 3 4 3 5 1 4 6 2 2 1 1 2 5 7 4 6 6 10 7 11 10 7 2 3 5 3 5 4 14 12 14 32 37 36 49
16 13 6 4 3 9 11 8 6 5 2 4 5 4 3 3 5 9 2 1 2 2 2 6 6 5 5 5 5 7 4 7 5 3 4 7 4 2 13 26 20 28 30 38 45
13 7 4 4 3 8 8 7 5 2 6 9 1 3 4 4 3 4 4 4 3 2 4 6 5 6 9 5 6 3 6 3 4 4 5 2 4 8 19 18 25 26 32 40 39
7 7 9 10 8 10 12 4 8 7 6 5 6 4 3 4 4 4 5 6 8 4 4 4 6 8 6 1 3 3 7 5 5 3 4 6 4 5 11 24 35 40 45 42 30
7 7 6 8 9 7 6 6 1 5 6 7 8 7 8 5 4 6 9 11 10 8 5 4 4 4 6 7 2 8 2 7 6 1 4 3 8 9 17 15 14 33 34 40 41
6 4 6 10 7 6 5 5 3 8 6 6 7 7 7 8 6 5 6 8 5 16 9 6 3 4 8 8 9 7 6 3 3 5 3 4 5 3 16 20 21 13 32 41 37
5 3 10 8 3 4 4 2 5 20 19 7 6 5 4 3 4 5 4 4 6 5 15 4 4 8 4 6 4 7 8 6 1 4 6 2 3 6 12 16 20 21 34 36 43
6 4 19 3 5 2 3 3 7 10 17 8 6 7 4 6 7 5 5 3 9 4 4 4 4 2 5 5 3 6 8 6 4 7 3 3 2 4 12 24 34 29 7 23 36
6 6 28 20 4 4 4 4 9 5 7 5 7 5 4 5 5 6 4 6 15 5 3 6 4 4 9 7 8 5 12 7 4 2 2 2 3 7 19 27 37 41 37 23 13
5 4 8 19 18 5 5 5 4 13 14 8 6 10 7 8 7 6 6 7 13 15 10 7 4 5 4 6 5 9 14 10 3 2 7 3 12 9 13 17 27 34 35 36 33
7 2 3 3 9 11 8 5 10 5 7 13 7 7 5 7 5 6 6 7 7 14 5 5 3 2 0 6 5 10 12 10 6 6 1 9 14 6 7 12 21 27 28 30 31
4 5 6 15 7 13 7 6 7 6 5 5 6 8 10 5 3 4 5 4 1 6 3 4 1 2 4 4 8 8 8 6 6 8 8 7 2 7 5 18 26 26 26 27 30
9 7 2 7 5 5 2 2 5 5 7 7 4 4 7 5 10 10 8 7 6 1 1 3 4 3 3 4 8 5 7 10 5 10 5 6 7 17 6 15 20 21 26 26 25
Wind_Direction
345 343 342 342 344 343 342 338 337 328 322 323 318 307 301 303 301 287 270 242 201 185 166 174 186 183 182 208 211 217 278 274 284 230 195 203 1 344 26 137 144 346 172 157 154
341 339 338 337 338 340 339 338 334 327 317 312 310 309 305 307 307 294 282 220 181 185 174 171 172 167 193 223 218 196 174 246 46 124 156 194 80 292 160 139 145 17 150 157 158
338 338 337 335 334 334 336 335 333 326 316 307 307 306 304 319 319 34 40 200 190 170 185 185 157 175 218 231 212 225 226 148 183 154 137 152 202 274 299 172 177 167 158 164 166
337 336 336 334 331 329 332 331 329 326 318 309 306 305 304 318 255 36 2 59 191 179 183 185 192 210 217 215 224 253 249 170 167 173 156 150 1 304 302 175 232 176 167 164 170
336 334 332 330 328 326 328 326 325 325 319 314 303 295 300 304 258 33 341 339 188 194 193 185 193 197 226 219 244 232 250 218 174 183 179 132 148 208 259 311 182 179 176 167 173
333 332 329 327 323 321 324 323 323 326 319 318 313 268 284 288 66 22 332 327 272 202 195 191 196 203 268 243 216 250 265 250 167 165 167 145 168 138 252 176 160 172 178 175 172
331 330 329 327 321 317 321 320 319 319 311 315 312 276 268 240 164 254 289 325 304 212 198 196 192 217 327 302 259 253 265 305 159 166 166 131 104 173 154 177 163 179 178 178 176
332 331 331 328 320 315 317 317 311 309 302 319 329 286 253 159 273 229 260 251 254 261 211 212 211 264 265 281 303 12 58 3 150 172 173 206 172 189 181 205 168 174 188 182 186
334 336 336 331 320 314 319 319 309 286 275 174 289 306 265 239 261 127 206 219 208 206 210 219 234 253 276 247 5 17 275 300 309 178 151 213 130 171 204 177 164 174 184 189 196
337 338 338 335 323 317 335 324 320 269 270 268 252 309 215 133 171 198 189 242 193 192 215 215 209 258 16 75 218 260 340 325 244 320 144 178 187 185 195 182 168 174 185 189 197
340 341 338 336 330 328 27 54 4 45 306 252 293 282 307 118 31 172 204 223 185 165 165 198 88 223 228 181 203 250 291 279 286 276 223 192 160 182 187 200 180 169 180 190 196
342 342 340 338 340 344 29 47 31 335 298 286 269 267 270 278 301 223 181 148 124 172 172 352 231 234 225 222 243 266 256 279 285 265 177 166 172 166 187 197 186 186 189 194 188
343 343 342 348 88 42 12 16 360 338 299 294 232 247 253 207 261 170 165 185 198 176 171 163 237 234 235 260 247 249 226 263 249 328 47 101 127 176 203 210 205 209 199 200 192
339 341 343 329 58 31 26 7 358 319 51 278 192 247 200 226 61 143 145 83 124 189 210 200 244 226 219 244 218 265 224 253 275 31 102 194 175 205 196 202 233 210 199 207 200
337 333 342 344 8 37 6 350 333 318 81 172 182 165 91 157 143 97 215 155 324 278 93 258 242 239 220 227 211 241 256 236 288 338 108 332 92 292 175 217 216 216 213 212 202
338 327 343 305 20 11 347 344 326 49 118 167 139 176 123 215 169 165 133 131 252 314 8 232 261 183 213 250 221 250 273 44 44 74 352 155 122 251 181 213 213 226 223 208 200
338 334 10 57 325 340 343 353 54 76 312 343 157 142 193 228 173 152 128 32 13 43 342 333 350 312 23 344 352 97 61 7 1 10 228 46 74 229 214 216 210 216 219 213 209
16 102 83 50 27 13 356 55 53 5 360 336 351 4 91 122 20 52 39 18 25 43 68 60 337 16 358 81 274 260 150 152 179 176 260 349 231 261 216 216 212 210 212 208 217
100 94 69 41 29 4 355 52 76 355 337 334 340 37 359 8 113 107 78 32 24 357 96 31 292 332 30 333 12 323 50 196 124 115 66 264 304 323 27 7 283 213 209 211 222
62 49 47 25 28 356 57 78 77 31 344 11 34 24 27 2 43 50 48 341 18 25 73 338 353 15 315 22 34 99 281 307 15 180 200 295 320 297 11 352 339 257 206 205 202
39 24 34 72 63 15 107 88 70 37 32 25 4 35 26 39 41 42 31 18 30 20 64 28 57 303 21 44 323 353 23 343 164 128 159 157 298 56 33 17 346 314 218 193 185
20 35 16 324 66 83 55 40 62 20 30 28 48 48 45 7 38 78 73 69 50 42 47 328 123 331 262 290 356 100 70 41 44 314 26 139 92 345 39 29 11 352 191 200 194
9 25 47 69 65 7 40 70 65 49 23 33 9 22 4 9 75 97 112 100 82 71 65 340 14 6 348 358 17 25 19 6 258 266 55 98 262 38 55 46 28 32 47 62 75
23 27 21 49 38 95 91 13 98 56 48 55 26 43 31 15 4 57 63 51 90 98 96 79 73 121 165 237 271 320 339 360 45 12 330 263 333 8 50 64 59 39 36 48 48
30 9 50 344 10 53 69 7 58 26 36 28 16 31 41 20 31 39 26 15 45 36 45 94 122 105 237 302 316 317 325 342 345 312 342 305 325 59 59 74 68 73 49 41 42
40 12 22 55 61 59 19 347 51 12 52 10 52 31 56 75 96 359 27 49 345 351 49 14 176 103 356 342 339 325 312 308 330 4 336 324 167 351 57 79 66 63 62 45 33
28 21 12 31 37 76 3 30 40 29 30 75 43 56 41 3 346 321 296 271 241 196 299 122 121 81 299 331 333 24 26 3 51 44 346 41 5 349 32 47 50 54 56 51 30
Height
1529 1526 1523 1520 1517 1514 1511 1509 1507 1504 1501 1501 1499 1498 1497 1495 1494 1492 1490 1493 1495 1498 1501 1505 1508 1511 1514 1517 1518 1519 1522 1522 1512 1511 1512 1516 1509 1518 1516 1520 1521 1523 1522 1529 1537
1527 1524 1521 1518 1515 1512 1509 1506 1504 1502 1499 1498 1496 1495 1494 1492 1490 1487 1489 1488 1492 1496 1500 1503 1505 1509 1513 1514 1516 1516 1521 1511 1507 1507 1507 1512 1518 1517 1523 1519 1519 1525 1531 1536 1539
1525 1522 1519 1515 1512 1509 1506 1504 1501 1499 1497 1495 1494 1493 1492 1491 1488 1486 1485 1486 1491 1494 1499 1503 1506 1509 1511 1511 1511 1509 1511 1508 1506 1508 1508 1515 1522 1526 1523 1523 1520 1525 1528 1535 1540
1523 1520 1516 1513 1510 1506 1504 1501 1499 1497 1494 1493 1491 1491 1490 1490 1491 1486 1486 1487 1490 1493 1497 1501 1505 1508 1508 1508 1505 1508 1499 1504 1507 1509 1507 1511 1517 1517 1519 1521 1522 1524 1525 1530 1539
1521 1517 1514 1510 1507 1504 1501 1498 1496 1494 1492 1491 1490 1489 1489 1489 1486 1485 1486 1487 1488 1490 1494 1498 1502 1505 1506 1501 1503 1504 1496 1501 1504 1509 1510 1507 1514 1517 1514 1517 1516 1525 1533 1531 1539
1517 1514 1511 1507 1504 1501 1499 1496 1494 1491 1490 1489 1488 1488 1489 1489 1484 1485 1485 1486 1487 1488 1492 1495 1497 1500 1500 1498 1501 1494 1495 1495 1502 1507 1508 1502 1513 1519 1519 1516 1521 1523 1530 1533 1537
1515 1511 1507 1504 1500 1498 1496 1494 1492 1490 1488 1488 1487 1487 1486 1483 1483 1483 1484 1485 1486 1487 1489 1491 1497 1499 1500 1496 1493 1493 1496 1491 1497 1501 1506 1506 1516 1522 1519 1518 1518 1527 1530 1535 1537
1511 1507 1504 1501 1497 1494 1493 1492 1490 1488 1487 1487 1487 1486 1482 1481 1482 1482 1482 1484 1486 1487 1489 1493 1498 1500 1500 1494 1491 1493 1495 1503 1495 1498 1503 1502 1521 1516 1519 1520 1524 1524 1531 1533 1537
1508 1504 1501 1498 1495 1492 1491 1490 1488 1487 1487 1486 1487 1486 1481 1481 1481 1481 1482 1484 1485 1487 1489 1493 1498 1497 1496 1496 1502 1503 1512 1504 1494 1491 1497 1506 1517 1518 1507 1514 1516 1522 1528 1532 1535
1506 1502 1498 1495 1493 1490 1489 1487 1486 1486 1487 1486 1486 1488 1480 1479 1479 1479 1481 1482 1484 1486 1490 1493 1495 1496 1497 1504 1525 1512 1510 1505 1503 1487 1493 1503 1505 1507 1508 1514 1514 1515 1522 1529 1533
1504 1500 1496 1493 1491 1489 1489 1487 1489 1489 1486 1483 1483 1482 1478 1479 1479 1479 1480 1481 1483 1485 1491 1489 1498 1505 1498 1497 1498 1500 1504 1506 1492 1486 1489 1493 1502 1501 1508 1512 1510 1513 1516 1517 1529
1502 1498 1494 1491 1489 1489 1489 1490 1491 1492 1485 1479 1477 1479 1475 1478 1479 1478 1479 1481 1482 1488 1487 1494 1502 1493 1491 1491 1495 1499 1506 1503 1490 1482 1485 1493 1499 1505 1507 1507 1508 1507 1512 1514 1517
1501 1497 1493 1490 1490 1490 1490 1491 1490 1489 1488 1476 1475 1475 1475 1477 1477 1477 1479 1481 1482 1488 1488 1498 1490 1488 1490 1493 1497 1499 1505 1500 1500 1485 1488 1497 1512 1512 1510 1511 1511 1508 1506 1511 1514
1499 1495 1492 1489 1492 1490 1490 1489 1488 1487 1497 1481 1473 1473 1475 1475 1477 1477 1478 1480 1480 1485 1485 1491 1482 1487 1490 1493 1492 1507 1487 1487 1489 1494 1514 1490 1533 1518 1512 1513 1510 1505 1503 1506 1508
1497 1494 1492 1490 1490 1490 1490 1487 1486 1487 1504 1473 1472 1472 1473 1476 1477 1477 1477 1478 1480 1481 1486 1491 1481 1485 1488 1486 1483 1491 1479 1483 1483 1493 1504 1501 1517 1515 1510 1514 1507 1500 1499 1498 1502
1494 1492 1491 1490 1490 1490 1487 1485 1486 1500 1496 1475 1470 1472 1474 1474 1476 1476 1477 1478 1478 1479 1479 1481 1475 1477 1478 1475 1477 1474 1479 1487 1494 1503 1524 1513 1511 1518 1508 1491 1491 1493 1492 1492 1495
1491 1490 1489 1490 1490 1489 1486 1485 1500 1506 1475 1482 1476 1473 1475 1476 1476 1475 1479 1483 1491 1496 1495 1484 1480 1474 1476 1477 1473 1475 1498 1527 1528 1531 1533 1505 1513 1504 1485 1479 1480 1481 1485 1489 1493
1489 1490 1491 1491 1489 1487 1486 1488 1507 1490 1490 1480 1477 1473 1478 1475 1481 1478 1485 1494 1488 1491 1505 1507 1505 1488 1484 1488 1488 1484 1494 1523 1531 1537 1526 1502 1510 1495 1471 1467 1466 1468 1470 1481 1490
1491 1491 1491 1490 1489 1488 1488 1503 1511 1499 1493 1490 1482 1485 1489 1479 1480 1484 1497 1504 1501 1496 1508 1513 1502 1487 1485 1484 1484 1489 1496 1489 1511 1512 1528 1516 1495 1473 1477 1477 1473 1464 1469 1473 1477
1494 1492 1490 1490 1490 1490 1493 1502 1500 1496 1493 1491 1500 1495 1502 1494 1492 1491 1504 1509 1505 1502 1496 1510 1515 1497 1488 1484 1487 1498 1493 1500 1513 1526 1532 1520 1511 1506 1496 1486 1470 1464 1461 1462 1471
1495 1493 1491 1491 1492 1492 1506 1502 1500 1499 1497 1498 1501 1502 1502 1500 1500 1503 1514 1514 1507 1506 1504 1511 1517 1511 1498 1510 1513 1508 1518 1513 1505 1513 1529 1532 1523 1505 1500 1490 1479 1458 1452 1455 1459
1497 1496 1492 1492 1494 1497 1504 1500 1502 1503 1501 1502 1502 1503 1506 1503 1506 1510 1516 1512 1510 1507 1515 1515 1526 1529 1516 1508 1505 1507 1526 1527 1539 1527 1521 1522 1522 1502 1496 1486 1479 1462 1449 1462 1462
1499 1499 1498 1493 1508 1509 1504 1505 1506 1507 1507 1507 1508 1506 1504 1505 1512 1511 1512 1513 1511 1512 1519 1518 1535 1543 1529 1521 1515 1522 1524 1528 1527 1528 1523 1523 1521 1503 1491 1489 1491 1478 1470 1472 1476
1503 1506 1503 1501 1505 1504 1509 1513 1511 1510 1511 1511 1513 1509 1510 1514 1510 1516 1517 1517 1516 1515 1517 1519 1538 1546 1557 1547 1538 1532 1526 1526 1531 1542 1538 1527 1518 1510 1501 1497 1496 1497 1492 1485 1481
1509 1510 1509 1516 1511 1510 1511 1516 1515 1518 1515 1514 1517 1516 1518 1525 1521 1523 1522 1522 1520 1521 1521 1526 1541 1536 1538 1534 1531 1529 1526 1525 1530 1531 1535 1526 1520 1521 1511 1505 1504 1501 1502 1500 1498
1514 1514 1512 1513 1512 1513 1518 1523 1520 1520 1519 1523 1522 1522 1522 1529 1529 1530 1527 1526 1527 1524 1526 1529 1540 1537 1541 1533 1530 1528 1527 1524 1522 1523 1522 1520 1515 1521 1514 1507 1503 1503 1501 1502 1499
1517 1517 1516 1517 1517 1520 1525 1524 1524 1523 1523 1523 1524 1525 1526 1526 1524 1524 1524 1524 1525 1527 1528 1532 1539 1547 1545 1537 1533 1539 1533 1526 1526 1526 1523 1527 1528 1523 1518 1514 1512 1510 1506 1501 1502